When you browse on this site, cookies collect data to enhance your experience and personalize the content and advertising you see.
Visit our Privacy Policy to learn more. By continuing to use the site, you agree to this use of cookies and data.
  • In Czech Republic
  • List of Countries
  • For 7 days
  • Water Temperature
  • Weather Map
  • Weather Widgets
  • user-avatar
    Login

    Hourly Weather Chimbarongo

    Today, 1 June, Monday

    Time Temperature Precipitation Wind Pressure Humidity
    00:00 +11°C° 0 mm 0 mps 737 mmHg 79%
    01:00 +11°C° 0 mm 0 mps 738 mmHg 80%
    02:00 +11°C° 0 mm 0 mps 738 mmHg 81%
    03:00 +10°C° 0 mm 0 mps 737 mmHg 81%
    04:00 +10°C° 0 mm 0 mps 737 mmHg 82%
    05:00 +10°C° 0 mm 0 mps 737 mmHg 82%
    06:00 +10°C° 0 mm 0 mps 738 mmHg 82%
    07:00 +9°C° 0 mm 0 mps 738 mmHg 82%
    08:00 +12°C° 0 mm 0 mps 738 mmHg 75%
    09:00 +15°C° 0 mm 1 mps 739 mmHg 67%
    10:00 +18°C° 0 mm 1 mps 739 mmHg 59%
    11:00 +19°C° 0 mm 1 mps 739 mmHg 56%
    12:00 +20°C° 0 mm 1 mps 739 mmHg 53%
    13:00 +21°C° 0 mm 1 mps 738 mmHg 51%
    14:00 +20°C° 0 mm 1 mps 738 mmHg 55%
    15:00 +19°C° 0 mm 1 mps 738 mmHg 59%
    16:00 +19°C° 0 mm 1 mps 738 mmHg 63%
    17:00 +16°C° 0 mm 1 mps 738 mmHg 67%
    18:00 +15°C° 0 mm 1 mps 739 mmHg 71%
    19:00 +14°C° 0 mm 1 mps 739 mmHg 76%
    20:00 +13°C° 0 mm 1 mps 739 mmHg 75%
    21:00 +13°C° 0 mm 1 mps 739 mmHg 75%
    22:00 +13°C° 0 mm 1 mps 739 mmHg 74%
    23:00 +13°C° 0 mm 1 mps 738 mmHg 75%

    Tomorrow, 2 June, Tuesday

    Time Temperature Precipitation Wind Pressure Humidity
    00:00 +12°C° 0 mm 1 mps 738 mmHg 77%
    01:00 +12°C° 0 mm 1 mps 738 mmHg 78%
    02:00 +12°C° 0 mm 1 mps 737 mmHg 78%
    03:00 +10°C° 0 mm 0 mps 737 mmHg 78%
    04:00 +10°C° 0 mm 0 mps 736 mmHg 78%
    05:00 +10°C° 0 mm 0 mps 736 mmHg 77%
    06:00 +11°C° 0 mm 0 mps 736 mmHg 75%
    07:00 +11°C° 0 mm 0 mps 736 mmHg 74%
    08:00 +13°C° 0 mm 1 mps 736 mmHg 71%
    09:00 +14°C° 0 mm 1 mps 736 mmHg 67%
    10:00 +14°C° 0 mm 1 mps 736 mmHg 64%
    11:00 +15°C° 0 mm 1 mps 735 mmHg 63%
    12:00 +15°C° 0 mm 1 mps 734 mmHg 63%
    13:00 +15°C° 0 mm 1 mps 734 mmHg 62%
    14:00 +15°C° 0.1 mm 1 mps 734 mmHg 65%
    15:00 +14°C° 0.1 mm 1 mps 733 mmHg 68%
    16:00 +14°C° 0.1 mm 1 mps 733 mmHg 70%
    17:00 +13°C° 0.2 mm 1 mps 733 mmHg 73%
    18:00 +13°C° 0.2 mm 1 mps 733 mmHg 77%
    19:00 +12°C° 0.2 mm 1 mps 733 mmHg 80%
    20:00 +12°C° 0.3 mm 1 mps 733 mmHg 82%
    21:00 +11°C° 0.3 mm 1 mps 732 mmHg 84%
    22:00 +10°C° 0.3 mm 1 mps 732 mmHg 86%
    23:00 +10°C° 0.3 mm 1 mps 732 mmHg 87%

    Day after tomorrow, 3 June, Wednesday

    Time Temperature Precipitation Wind Pressure Humidity
    00:00 +10°C° 0.3 mm 1 mps 732 mmHg 89%
    01:00 +10°C° 0.3 mm 1 mps 732 mmHg 90%
    02:00 +10°C° 0.3 mm 1 mps 732 mmHg 91%
    03:00 +10°C° 0.3 mm 1 mps 732 mmHg 91%
    04:00 +10°C° 0.3 mm 1 mps 732 mmHg 92%
    05:00 +10°C° 0.2 mm 1 mps 732 mmHg 92%
    06:00 +8°C° 0.2 mm 0 mps 733 mmHg 93%
    07:00 +8°C° 0.2 mm 0 mps 733 mmHg 94%
    08:00 +9°C° 0.1 mm 0 mps 734 mmHg 90%
    09:00 +10°C° 0.1 mm 1 mps 735 mmHg 87%
    10:00 +11°C° 0.1 mm 1 mps 735 mmHg 83%
    11:00 +12°C° 0 mm 1 mps 735 mmHg 79%
    12:00 +13°C° 0 mm 1 mps 736 mmHg 74%
    13:00 +13°C° 0 mm 1 mps 736 mmHg 70%
    14:00 +13°C° 0 mm 1 mps 736 mmHg 72%
    15:00 +13°C° 0 mm 1 mps 736 mmHg 74%
    16:00 +12°C° 0 mm 1 mps 737 mmHg 76%
    17:00 +12°C° 0 mm 1 mps 737 mmHg 79%
    18:00 +11°C° 0 mm 1 mps 737 mmHg 82%
    19:00 +11°C° 0 mm 1 mps 738 mmHg 84%
    20:00 +10°C° 0 mm 1 mps 738 mmHg 86%
    21:00 +8°C° 0 mm 0 mps 738 mmHg 87%
    22:00 +8°C° 0 mm 0 mps 738 mmHg 88%
    23:00 +7°C° 0 mm 0 mps 738 mmHg 88%

    4 June, Thursday

    Time Temperature Precipitation Wind Pressure Humidity
    00:00 +7°C° 0 mm 0 mps 738 mmHg 88%
    01:00 +8°C° 0 mm 1 mps 738 mmHg 88%
    02:00 +8°C° 0 mm 1 mps 737 mmHg 87%
    03:00 +6°C° 0 mm 0 mps 737 mmHg 85%
    04:00 +6°C° 0 mm 0 mps 737 mmHg 84%
    05:00 +6°C° 0 mm 0 mps 737 mmHg 84%
    06:00 +6°C° 0 mm 0 mps 737 mmHg 83%
    07:00 +6°C° 0 mm 0 mps 737 mmHg 83%
    08:00 +9°C° 0 mm 1 mps 737 mmHg 76%
    09:00 +11°C° 0 mm 1 mps 738 mmHg 70%
    10:00 +13°C° 0 mm 1 mps 738 mmHg 63%
    11:00 +14°C° 0 mm 1 mps 737 mmHg 60%
    12:00 +15°C° 0 mm 1 mps 737 mmHg 57%
    13:00 +16°C° 0 mm 2 mps 737 mmHg 53%
    14:00 +15°C° 0 mm 2 mps 737 mmHg 57%
    15:00 +14°C° 0 mm 1 mps 737 mmHg 61%
    16:00 +14°C° 0 mm 1 mps 738 mmHg 65%
    17:00 +12°C° 0 mm 1 mps 738 mmHg 70%
    18:00 +11°C° 0 mm 1 mps 738 mmHg 76%
    19:00 +9°C° 0 mm 0 mps 739 mmHg 82%
    20:00 +8°C° 0 mm 0 mps 739 mmHg 82%
    21:00 +8°C° 0 mm 0 mps 739 mmHg 82%
    22:00 +8°C° 0 mm 0 mps 739 mmHg 82%
    23:00 +7°C° 0 mm 0 mps 739 mmHg 81%

    5 June, Friday

    Time Temperature Precipitation Wind Pressure Humidity
    00:00 +7°C° 0 mm 0 mps 739 mmHg 81%
    01:00 +7°C° 0 mm 0 mps 739 mmHg 80%
    02:00 +7°C° 0 mm 0 mps 739 mmHg 79%
    03:00 +7°C° 0 mm 0 mps 739 mmHg 77%
    04:00 +7°C° 0 mm 0 mps 739 mmHg 76%
    05:00 +6°C° 0 mm 0 mps 739 mmHg 74%
    06:00 +6°C° 0 mm 0 mps 738 mmHg 72%
    07:00 +6°C° 0 mm 0 mps 738 mmHg 70%
    08:00 +9°C° 0 mm 0 mps 738 mmHg 63%
    09:00 +11°C° 0 mm 0 mps 738 mmHg 56%
    10:00 +13°C° 0 mm 0 mps 738 mmHg 49%
    11:00 +14°C° 0 mm 0 mps 738 mmHg 46%
    12:00 +16°C° 0 mm 1 mps 738 mmHg 43%
    13:00 +18°C° 0 mm 1 mps 737 mmHg 39%
    14:00 +18°C° 0 mm 1 mps 737 mmHg 43%
    15:00 +15°C° 0 mm 0 mps 737 mmHg 47%
    16:00 +14°C° 0 mm 0 mps 737 mmHg 50%
    17:00 +14°C° 0 mm 1 mps 737 mmHg 52%
    18:00 +12°C° 0 mm 1 mps 737 mmHg 54%
    19:00 +11°C° 0 mm 1 mps 737 mmHg 55%
    20:00 +11°C° 0 mm 1 mps 736 mmHg 55%
    21:00 +11°C° 0 mm 1 mps 736 mmHg 54%
    22:00 +10°C° 0 mm 1 mps 736 mmHg 53%
    23:00 +10°C° 0 mm 1 mps 736 mmHg 52%

    6 June, Saturday

    Time Temperature Precipitation Wind Pressure Humidity
    00:00 +10°C° 0 mm 1 mps 736 mmHg 51%
    01:00 +9°C° 0 mm 0 mps 736 mmHg 50%
    02:00 +9°C° 0 mm 0 mps 735 mmHg 50%
    03:00 +9°C° 0 mm 0 mps 735 mmHg 51%
    04:00 +8°C° 0 mm 0 mps 735 mmHg 51%
    05:00 +8°C° 0 mm 0 mps 735 mmHg 52%
    06:00 +9°C° 0 mm 1 mps 736 mmHg 53%
    07:00 +9°C° 0 mm 1 mps 736 mmHg 55%
    08:00 +10°C° 0 mm 1 mps 736 mmHg 52%
    09:00 +12°C° 0 mm 1 mps 737 mmHg 50%
    10:00 +14°C° 0 mm 1 mps 737 mmHg 47%
    11:00 +14°C° 0 mm 1 mps 737 mmHg 46%
    12:00 +15°C° 0 mm 1 mps 736 mmHg 46%
    13:00 +15°C° 0 mm 1 mps 736 mmHg 45%
    14:00 +15°C° 0 mm 1 mps 736 mmHg 48%
    15:00 +13°C° 0 mm 0 mps 737 mmHg 52%
    16:00 +13°C° 0 mm 0 mps 737 mmHg 55%
    17:00 +12°C° 0 mm 0 mps 737 mmHg 56%
    18:00 +11°C° 0 mm 0 mps 738 mmHg 58%
    19:00 +10°C° 0 mm 0 mps 738 mmHg 59%
    20:00 +11°C° 0 mm 1 mps 738 mmHg 60%
    21:00 +10°C° 0 mm 1 mps 738 mmHg 61%
    22:00 +10°C° 0 mm 1 mps 737 mmHg 62%
    23:00 +10°C° 0 mm 1 mps 737 mmHg 66%
    Show more